weather.gov     
National Weather Service

Terminal Aerodrome Forecast
NWS Homepage
This page is being discontinued on March 12, 2014.
The same data is available at this site. Please update your bookmarks.
Thank you, and we apologize for the inconvenience.
Please send an email to SR-SRH.Webmaster@noaa.gov with any concerns.


Current Version
Previous Version:    01  02  03  04  05  06  07  08  09  10  11  12  13  14  15  16  17  18  19  20  21  22  23  
[Printable]
624
FTUS42 KMLB 222300
TAFTIX
TAF
KTIX 222340Z 2300/2324 16003KT P6SM FEW040 BKN250
     FM230500 19003KT 4SM BR SCT003 OVC005
     FM231400 16008KT P6SM SCT010 BKN020 BKN250
     FM231600 16011KT P6SM SCT030 SCT080 BKN250
      AMD NOT SKED 2302/2312=


U.S. Dept. of Commerce
NOAA National Weather Service
1325 East West Highway
Silver Spring, MD 20910
E-mail: w-nws.webmaster@noaa.gov
Page last modified: May 16, 2007
NATIONAL WEATHER SERVICE: for Safety, for Work, for Fun - FOR LIFE